Weather History for Akron Canton, OH

Change the Weather History Date:

Tuesday, November 5, 2013

  Actual Average Record
Temperature  
Mean Temperature 51 °F 46 °F  
Max Temperature 60 °F 54 °F 75 °F (1948)
Min Temperature 41 °F 37 °F 14 °F (1991)
Degree Days  
Heating Degree Days 14 20  
Month to date heating degree days 95 95  
Since 1 July heating degree days 559 650  
Cooling Degree Days 0 0  
Month to date cooling degree days 0 0  
Year to date cooling degree days 829 652  
Moisture  
Dew Point 34 °F    
Average Humidity 55    
Maximum Humidity 66    
Minimum Humidity 44    
Precipitation  
Precipitation 0.00 in 0.11 in 1.30 in (1985)
Month to date precipitation 0.36 0.55  
Year to date precipitation 35.62 34.03  
Snow  
Snow 0.00 in 0.10 in - ()
Month to date snowfall 0.0 0.3  
Since 1 July snowfall T 0.7  
Since 1 September snowfall T 0.7  
Snow Depth 0.00 in    
Sea Level Pressure  
Sea Level Pressure 30.39 in    
Wind  
Wind Speed 7 mph (South)    
Max Wind Speed 12 mph    
Max Gust Speed 12 mph    
Visibility 10 miles    
Events      
T = Trace of Precipitation, MM = Missing Value Source: NWS Daily Summary

Daily Weather History Graph

Daily Weather History Graph

Search for Another Location

Airport:

Trip Planner

Search our weather history database for the weather conditions in past years. The results will help you decide how hot, cold, wet, or windy it might be!

Date:

Astronomy

Nov. 05, 2013 Rise Set
Actual Time 7:01 AM EST 5:16 PM EST
Civil Twilight 6:32 AM EST 5:45 PM EST
Nautical Twilight 5:59 AM EST 6:18 PM EST
Astronomical Twilight 5:27 AM EST 6:50 PM EST
Moon 9:15 AM EST (11/5) 7:16 PM EST (11/5)
Length of Visible Light 11h 12m
Length of Day
10h 15m
Waxing Crescent, 6% of the Moon is Illuminated
Nov 5
Waxing Crescent
Nov 10
First Quarter
Nov 17
Full
Nov 25
Last Quarter
Dec 2
New

Hourly Weather History & Observations

Time (EST) Temp. Windchill Dew Point Humidity Pressure Visibility Wind Dir Wind Speed Gust Speed Precip Events Conditions
12:51 AM 42.6 °F 39.9 °F 25.2 °F 50% 30.42 in 10.0 mi South 4.6 mph - N/A   Overcast
1:51 AM 42.6 °F 39.9 °F 25.9 °F 52% 30.42 in 10.0 mi South 4.6 mph - N/A   Overcast
2:51 AM 42.6 °F 40.9 °F 25.9 °F 52% 30.42 in 10.0 mi South 3.5 mph - N/A   Overcast
3:51 AM 41.4 °F 39.4 °F 26.2 °F 55% 30.43 in 10.0 mi South 3.5 mph - N/A   Overcast
4:51 AM 43.7 °F 39.1 °F 27.7 °F 53% 30.43 in 10.0 mi South 8.1 mph - N/A   Overcast
5:51 AM 43.7 °F 39.1 °F 27.7 °F 53% 30.43 in 10.0 mi South 8.1 mph - N/A   Overcast
6:51 AM 44.1 °F 40.8 °F 28.9 °F 55% 30.45 in 10.0 mi South 5.8 mph - N/A   Overcast
7:51 AM 46.0 °F 42.5 °F 32.0 °F 58% 30.44 in 10.0 mi South 6.9 mph - N/A   Overcast
8:51 AM 46.0 °F 42.5 °F 34.0 °F 63% 30.44 in 10.0 mi South 6.9 mph - N/A   Overcast
9:51 AM 51.1 °F - 35.1 °F 54% 30.43 in 10.0 mi SSW 9.2 mph - N/A   Overcast
10:51 AM 54.0 °F - 35.1 °F 49% 30.44 in 10.0 mi South 5.8 mph - N/A   Overcast
11:51 AM 55.9 °F - 37.9 °F 51% 30.44 in 10.0 mi South 8.1 mph - N/A   Overcast
12:51 PM 59.0 °F - 39.0 °F 48% 30.40 in 10.0 mi SSW 5.8 mph - N/A   Overcast
1:51 PM 60.1 °F - 39.9 °F 47% 30.38 in 10.0 mi South 8.1 mph - N/A   Overcast
2:51 PM 59.0 °F - 37.9 °F 46% 30.38 in 10.0 mi South 10.4 mph - N/A   Mostly Cloudy
3:51 PM 57.9 °F - 39.0 °F 49% 30.38 in 10.0 mi SSW 11.5 mph - N/A   Mostly Cloudy
4:51 PM 55.9 °F - 39.0 °F 53% 30.35 in 10.0 mi South 9.2 mph - N/A   Mostly Cloudy
5:51 PM 55.0 °F - 39.0 °F 55% 30.36 in 8.0 mi SSE 5.8 mph - N/A   Mostly Cloudy
6:51 PM 53.1 °F - 39.0 °F 59% 30.35 in 8.0 mi SSE 5.8 mph - N/A   Mostly Cloudy
7:51 PM 53.1 °F - 37.9 °F 57% 30.34 in 8.0 mi SSE 5.8 mph - N/A   Mostly Cloudy
8:51 PM 51.1 °F - 37.9 °F 61% 30.34 in 8.0 mi SSE 5.8 mph - N/A   Mostly Cloudy
9:51 PM 48.0 °F - 37.0 °F 66% 30.34 in 8.0 mi SSE 5.8 mph - N/A   Mostly Cloudy
9:56 PM 53.6 °F - 41.0 °F 62% 30.22 in 10.0 mi SSE 6.9 mph - N/A   Mostly Cloudy
10:51 PM 50.0 °F - 37.0 °F 61% 30.31 in 8.0 mi South 10.4 mph - N/A   Mostly Cloudy
11:51 PM 49.1 °F - 37.0 °F 63% 30.30 in 10.0 mi South 4.6 mph - N/A   Mostly Cloudy